Location: Centerville
(32.8776°N, 96.6203°W)
Time: 01:26:53
(UTC+00:00)

Lacrosse 5 - Pass Details

Date: 17 June 2021
Orbit: 715 x 724 km, 57.0° (Epoch: 21 July)

Event Time Altitude Azimuth Distance (km) Brightness Sun altitude
Rises 02:02:09 0° 338° (NNW) 3,120 6.2 -5.4°
Reaches altitude 10° 02:06:01 10° 7° (N) 2,199 4.8 -6.1°
Maximum altitude 02:08:10 13° 32° (NNE) 2,028 4.2 -6.5°
Drops below altitude 10° 02:10:19 10° 58° (ENE) 2,199 4.1 -6.8°
Enters shadow 02:13:39 - 84° (E) 2,968 4.6 -7.4°
